Rockford, IL

11:48 PM CST on January 19, 2018 (GMT -0600)
Greater Rockford

Weather History for KRFD - March, 2013

Change the Weather History Date:

Thursday, March 7, 2013

  Actual Average Record
Temperature  
Mean Temperature 26 °F 34 °F  
Max Temperature 34 °F 43 °F 78 °F (2000)
Min Temperature 17 °F 24 °F -4 °F (1920)
Degree Days  
Heating Degree Days 39 32  
Month to date heating degree days 289 230  
Since 1 July heating degree days 5026 5232  
Cooling Degree Days 0 0  
Month to date cooling degree days 0 0  
Year to date cooling degree days 0 0  
Moisture  
Dew Point 21 °F    
Average Humidity 76    
Maximum Humidity 91    
Minimum Humidity 61    
Precipitation  
Precipitation 0.00 in 0.06 in 1.16 in (2009)
Month to date precipitation 0.95 0.45  
Year to date precipitation 7.02 3.23  
Snow  
Snow 0.00 in 0.30 in 6.50 in (1935)
Month to date snowfall 10.1 1.5  
Since 1 July snowfall 36.7 32.5  
Snow Depth 14.00 in    
Sea Level Pressure  
Sea Level Pressure 30.42 in    
Wind  
Wind Speed 3 mph (WNW)    
Max Wind Speed 10 mph    
Max Gust Speed 12 mph    
Visibility 10 miles    
Events Fog    
T = Trace of Precipitation, MM = Missing Value Source: NWS Daily Summary

Daily Weather History Graph

Daily Weather History Graph

Search for Another Location

Airport or City:

Trip Planner

Search our weather history database for the weather conditions in past years. The results will help you decide how hot, cold, wet, or windy it might be!

Date:

Astronomy

Mar. 07, 2013 Rise Set
Actual Time 6:21 AM CST 5:53 PM CST
Civil Twilight 5:53 AM CST 6:21 PM CST
Nautical Twilight 5:21 AM CST 6:54 PM CST
Astronomical Twilight 4:48 AM CST 7:27 PM CST
Moon 3:25 AM CST (3/7) 1:38 PM CST (3/7)
Length of Visible Light 12h 28m
Length of Day
11h 32m
Waning Crescent, 20% of the Moon is Illuminated
Mar 7
Waning Crescent
Mar 11
New
Mar 19
First Quarter
Mar 27
Full
Apr 2
Last Quarter

Hourly Weather History & Observations

Time (CST) Temp. Windchill Dew Point Humidity Pressure Visibility Wind Dir Wind Speed Gust Speed Precip Events Conditions
12:54 AM 28.0 °F 20.0 °F 21.9 °F 78% 30.36 in 10.0 mi NNW 8.1 mph - N/A   Overcast
1:54 AM 28.0 °F 20.8 °F 21.9 °F 78% 30.38 in 10.0 mi NW 6.9 mph - N/A   Overcast
2:54 AM 28.0 °F 22.8 °F 21.0 °F 75% 30.38 in 10.0 mi NNW 4.6 mph - N/A   Overcast
3:54 AM 28.0 °F 22.8 °F 21.9 °F 78% 30.38 in 10.0 mi North 4.6 mph - N/A   Overcast
4:36 AM 26.6 °F - 21.2 °F 80% 30.35 in 10.0 mi Calm Calm - N/A   Overcast
4:54 AM 28.0 °F 22.8 °F 21.0 °F 75% 30.38 in 10.0 mi NNW 4.6 mph - N/A   Overcast
5:54 AM 28.0 °F 22.8 °F 21.0 °F 75% 30.40 in 10.0 mi NNW 4.6 mph - N/A   Overcast
6:54 AM 27.0 °F - 21.0 °F 78% 30.41 in 10.0 mi Calm Calm - N/A   Overcast
7:54 AM 28.0 °F - 21.9 °F 78% 30.43 in 10.0 mi Calm Calm - N/A   Overcast
8:54 AM 30.9 °F 27.5 °F 21.9 °F 69% 30.44 in 10.0 mi NNW 3.5 mph - N/A   Overcast
9:54 AM 32.0 °F - 21.0 °F 64% 30.45 in 10.0 mi Calm Calm - N/A   Overcast
10:54 AM 32.0 °F - 21.0 °F 64% 30.44 in 10.0 mi Calm Calm - N/A   Overcast
11:54 AM 30.9 °F 25.2 °F 21.9 °F 69% 30.44 in 10.0 mi SSW 5.8 mph - N/A   Overcast
12:54 PM 32.0 °F 26.4 °F 21.9 °F 66% 30.43 in 10.0 mi South 5.8 mph - N/A   Overcast
1:54 PM 32.0 °F - 21.0 °F 64% 30.41 in 10.0 mi Calm Calm - N/A   Mostly Cloudy
2:54 PM 32.0 °F 28.7 °F 21.9 °F 66% 30.43 in 10.0 mi SSW 3.5 mph - N/A   Mostly Cloudy
3:54 PM 34.0 °F - 21.9 °F 61% 30.42 in 10.0 mi Calm Calm - N/A   Scattered Clouds
4:54 PM 30.9 °F 26.2 °F 21.9 °F 69% 30.41 in 10.0 mi South 4.6 mph - N/A   Mostly Cloudy
5:54 PM 28.9 °F 23.9 °F 21.0 °F 72% 30.43 in 10.0 mi South 4.6 mph - N/A   Scattered Clouds
6:54 PM 28.0 °F - 21.0 °F 75% 30.44 in 10.0 mi Calm Calm - N/A   Scattered Clouds
7:54 PM 25.0 °F - 19.9 °F 81% 30.44 in 10.0 mi Calm Calm - N/A   Partly Cloudy
8:54 PM 23.0 °F - 19.9 °F 88% 30.45 in 10.0 mi Calm Calm - N/A   Scattered Clouds
9:54 PM 19.9 °F - 17.1 °F 89% 30.45 in 9.0 mi Calm Calm - N/A   Partly Cloudy
10:54 PM 19.0 °F - 17.1 °F 92% 30.45 in 7.0 mi Calm Calm - N/A   Partly Cloudy
11:54 PM 17.1 °F 7.6 °F 15.1 °F 92% 30.43 in 6.0 mi ESE 6.9 mph - N/A Fog Shallow Fog